This is the latest recevied weather packets stored in our database for station/object W2BP-13. If no packets are shown the sender has not sent any weather packets the latest 10 day(s).
| Time | Temp. | Humidity | Pressure | Rain* | Wind** | Luminosity | Snow |
|---|---|---|---|---|---|---|---|
| 1778017233 | 30° C | 23% | 1015 hPa | 0 mm | - | - | - |
| 1778016333 | 30° C | 25% | 1015.1 hPa | 0 mm | - | - | - |
| 1778015433 | 29.44° C | 26% | 1015.2 hPa | 0 mm | - | - | - |
| 1778014533 | 30° C | 29% | 1015.2 hPa | 0 mm | - | - | - |
| 1778013633 | 29.44° C | 30% | 1015.1 hPa | 0 mm | - | - | - |
| 1778011833 | 28.33° C | 30% | 1015.4 hPa | 0 mm | - | - | - |
| 1778010933 | 27.78° C | 34% | 1015.6 hPa | 0 mm | - | - | - |
| 1778010033 | 27.78° C | 35% | 1015.7 hPa | 0 mm | - | - | - |
| 1778009132 | 27.22° C | 35% | 1015.8 hPa | 0 mm | - | - | - |
| 1778008232 | 27.22° C | 34% | 1015.7 hPa | 0 mm | - | - | - |
| 1778007332 | 26.67° C | 40% | 1015.8 hPa | 0 mm | - | - | - |
| 1778006433 | 25.56° C | 40% | 1015.9 hPa | 0 mm | - | - | - |
| 1778005533 | 26.11° C | 39% | 1016.1 hPa | 0 mm | - | - | - |
| 1778004632 | 25.56° C | 39% | 1016 hPa | 0 mm | - | - | - |
| 1778003733 | 25° C | 39% | 1015.9 hPa | 0 mm | - | - | - |
| 1778002833 | 25° C | 42% | 1015.9 hPa | 0 mm | - | - | - |
| 1778001932 | 23.89° C | 47% | 1015.9 hPa | 0 mm | - | - | - |
| 1778001033 | 23.89° C | 47% | 1015.8 hPa | 0 mm | - | - | - |
| 1778000133 | 23.89° C | 46% | 1015.6 hPa | 0 mm | - | - | - |
| 1777999233 | 22.78° C | 49% | 1015.8 hPa | 0 mm | - | - | - |
| 1777998333 | 22.22° C | 52% | 1015.7 hPa | 0 mm | - | - | - |
| 1777997433 | 21.67° C | 56% | 1015.8 hPa | 0 mm | - | - | - |
| 1777996533 | 21.67° C | 55% | 1015.5 hPa | 0 mm | - | - | - |
| 1777995633 | 20.56° C | 58% | 1015.4 hPa | 0 mm | - | - | - |
| 1777994733 | 20.56° C | 58% | 1015.4 hPa | 0 mm | - | - | - |
* Rain latest hour (hover to see other rain measurements)
** Current wind speed in m/s (hover to see current wind gust speed)